User: anonymous   Login
Location: Innsbruck
(47.2657°N, 11.3914°E)
Time: 22:05:02
(UTC+01:00)
Language:

LilacSat-2 - Orbit

View from above orbital plane
View from above orbital plane
View from above satellite
View from above satellite

Ground track
Ground track

The orbit data is extracted from the following two-line orbital elements,

1 40908U 15049K   21339.46984252  .00001566  00000-0  87893-4 0  9995
2 40908  97.5113 337.2354 0014988 334.7346 148.5277 15.14751807343111
Epoch (UTC): 05 December 2021 11:16:34
Eccentricity: 0.0014988
inclination: 97.5113°
perigee height: 511 km
apogee height: 532 km
right ascension of ascending node: 337.2354°
argument of perigee: 334.7346°
revolutions per day: 15.14751807
mean anomaly at epoch: 148.5277°
orbit number at epoch: 34311

The dashed part of the orbit path shows where the satellite is in the earth's shadow,  

DLR